Location: Stara Lesna
(49.1528°N, 20.2911°E)
Time: 18:18:00
(UTC+02:00)

H-2A R/B - Pass Details

Date: 13 July 2020
Orbit: 577 x 656 km, 98.5° (Epoch: 11 August)

Event Time Altitude Azimuth Distance (km) Brightness Sun altitude
Rises 03:47:17 0° 160° (SSE) 2,930 5.2 -8.3°
Reaches altitude 10° 03:49:30 10° 159° (SSE) 2,015 4.4 -8.0°
Maximum altitude 03:53:53 78° 73° (ENE) 643 2.3 -7.5°
Drops below altitude 10° 03:58:12 10° 348° (NNW) 1,982 5.1 -7.1°
Sets 04:00:22 0° 347° (NNW) 2,879 6.0 -6.8°
